Home > Weather > Jena > Past weeks

Flag for Germany Past Weather in Jena, Thuringia, Germany — Yesterday and Last 2 Weeks

Now
59 °F

Passing clouds.


Feels Like: 57 °F
Forecast: 55 / 71 °F
Wind: 9 mph from West

Location: Erfurt-Bindersleben

Current Time: Jun 26, 2016 at 8:34:04 AM

Latest Report: Jun 26, 2016 at 8:20 AM


Visibility: N/A

Pressure: 30.07 "Hg

Humidity: 77%

Dew Point: 52 °F

Location of JenaLocation

Past Weather in Jena — Graph

°F

Jena Temperature Yesterday

Maximum temperature yesterday: 79 °F (at 3:20 PM)
Minimum temperature yesterday: 57 °F (at 11:50 PM)
Average temperature yesterday: 68 °F

High & Low Weather Summary for the Past Weeks

 TemperatureHumidityPressure
High91 °F (Jun 24, 3:50 PM)100% (Jun 12, 5:20 PM)30.24 "Hg (Jun 12, 5:20 PM)
Low46 °F (Jun 20, 5:20 AM)31% (Jun 23, 4:20 PM)29.50 "Hg (Jun 14, 5:20 PM)
Average63 °F76%29.90 "Hg
* Reported Jun 11 7:20 AM — Jun 26 7:20 AM, Jena, Weather by CustomWeather, © 2016

Note: Actual official high and low records may vary slightly from our data, if they occured in-between our weather recording intervals... More about our weather records

Advertising

Jena Weather History for the Previous 24 Hours

Scroll right to see more
 ConditionsComfort  
Time TempWeatherWind HumidityBarometerVisibility
7:20 AM
Sun, Jun 26
57 °FPassing clouds.7 mph82%30.07 "HgN/A
6:50 AM57 °FSunny.9 mph82%30.07 "Hg10 mi
6:20 AM55 °FSunny.9 mph88%30.07 "Hg10 mi
5:50 AM54 °FPassing clouds.10 mph94%30.04 "HgN/A
5:20 AM54 °FPassing clouds.10 mph94%30.04 "HgN/A
4:50 AM54 °FPassing clouds.8 mph94%30.04 "HgN/A
4:20 AM55 °FPassing clouds.9 mph94%30.01 "HgN/A
3:50 AM57 °FPassing clouds.12 mph88%30.01 "HgN/A
3:20 AM55 °FPassing clouds.9 mph94%30.01 "HgN/A
2:50 AM55 °FPassing clouds.13 mph94%30.01 "HgN/A
2:20 AM55 °FPassing clouds.14 mph94%30.01 "HgN/A
1:50 AM55 °FPartly cloudy.16 mph94%30.01 "HgN/A
1:20 AM55 °FPassing clouds.15 mph94%29.98 "HgN/A
12:50 AM55 °FPartly cloudy.20 mph94%29.98 "HgN/A
12:20 AM57 °FPassing clouds.17 mph88%29.98 "HgN/A
11:50 PM
Sat, Jun 25
57 °FPassing clouds.18 mph88%30.01 "HgN/A
11:20 PM59 °FPassing clouds.13 mph82%30.01 "HgN/A
10:50 PM59 °FPartly cloudy.10 mph88%29.98 "HgN/A
10:20 PM59 °FPartly sunny.17 mph94%29.98 "HgN/A
9:50 PM61 °FBroken clouds.14 mph94%29.92 "HgN/A
9:20 PM63 °FSprinkles. Partly sunny.15 mph94%29.89 "HgN/A
8:50 PM66 °FSprinkles. Scattered clouds.15 mph94%29.86 "HgN/A
8:20 PM66 °FSprinkles. Partly sunny.22 mph88%29.86 "HgN/A
7:50 PM70 °FSprinkles. Scattered clouds.24 mph78%29.86 "HgN/A
7:20 PM75 °FScattered clouds.10 mph74%29.83 "HgN/A
6:50 PM75 °FScattered clouds.10 mph69%29.83 "HgN/A
6:20 PM75 °FScattered clouds.13 mph69%29.83 "HgN/A
5:50 PM75 °FScattered showers. Scattered clouds.8 mph74%29.83 "HgN/A
5:20 PM79 °FScattered clouds.7 mph61%29.83 "HgN/A
4:50 PM79 °FScattered clouds.8 mph61%29.83 "HgN/A
4:20 PM79 °FScattered clouds.8 mph61%29.86 "HgN/A
3:50 PM79 °FScattered clouds.8 mph61%29.86 "HgN/A
3:20 PM79 °FPassing clouds.8 mph61%29.86 "HgN/A
2:50 PM77 °FScattered clouds.8 mph65%29.86 "HgN/A
2:20 PM77 °FScattered clouds.9 mph65%29.86 "HgN/A
1:50 PM75 °FScattered clouds.7 mph74%29.89 "HgN/A
1:20 PM75 °FScattered clouds.6 mph74%29.89 "HgN/A
12:50 PM73 °FPartly sunny.3 mph74%29.89 "HgN/A
12:20 PM73 °FSprinkles. Partly sunny.5 mph78%29.89 "HgN/A
11:50 AM73 °FScattered showers. Partly sunny.5 mph69%29.92 "HgN/A
11:20 AM72 °FPartly sunny.6 mph78%29.92 "HgN/A
10:50 AM72 °FPartly sunny.5 mph78%29.92 "HgN/A
10:20 AM68 °FPartly sunny.6 mph88%29.92 "HgN/A
9:50 AM70 °FBroken clouds.2 mph83%29.92 "HgN/A
9:20 AM70 °FBroken clouds.2 mph83%29.92 "HgN/A
8:50 AM68 °FBroken clouds.3 mph88%29.92 "HgN/A
8:20 AM68 °FBroken clouds.1 mph88%29.92 "HgN/A
Weather by CustomWeather, © 2016

See weather overviewHow to use our weather pages